Location: Asheville, NC
(35.6000°N, 82.5500°W)
Time: 20:24:51

XW-2C - Pass Details

Date: 07 January 2018
Orbit: 511 x 530 km, 97.5° (Epoch: 23 March)

Event Time Altitude Azimuth Distance (km) Brightness Sun altitude
Rises 05:54:36 0° 25° (NNE) 2,658 ? -21.0°
Reaches altitude 10° 05:56:59 10° 39° (NE) 1,761 ? -20.5°
Maximum altitude 06:00:11 26° 96° (E) 1,059 ? -19.9°
Drops below altitude 10° 06:03:21 10° 154° (SSE) 1,739 ? -19.2°
Sets 06:05:41 0° 167° (SSE) 2,617 ? -18.8°
